Temp
26 26 26 25 25 25 25 25 25 25 25 25 25 25 26 25 25 25 25 26 26 26 26 26 26 25 25 25 25 25 25 25 25 25 25 25 25 25 25 25 25 25 25 25 26 26 26 26 26 26 26 26 27 27 27 28 28 28 28 28 28 27 27 27 26 26 27 27 27 27 27 27 27 28 28 28 28 28 28 28 28 28 29 29 29
26 26 26 26 26 26 26 26 26 26 26 26 25 25 26 26 25 26 26 26 26 26 26 26 26 26 25 25 25 25 25 25 25 25 25 25 25 25 25 25 25 25 25 25 26 26 26 26 26 26 26 26 27 27 27 27 27 28 28 27 27 27 27 27 26 26 26 27 27 27 27 27 27 28 28 28 28 28 28 28 28 28 29 29 29
27 26 26 26 26 26 26 26 26 26 26 26 26 26 26 26 26 26 26 26 26 26 26 26 26 26 26 26 26 26 26 26 26 25 25 25 25 25 25 25 25 25 26 26 26 26 26 26 26 26 26 26 27 27 27 27 27 27 27 27 27 27 27 27 26 26 26 26 27 27 27 27 27 28 28 28 28 28 28 28 29 29 29 29 29
26 27 27 27 27 27 27 26 26 26 26 26 26 26 26 26 26 26 26 26 26 26 26 26 26 26 26 26 26 26 26 26 26 26 25 25 25 25 25 25 25 26 26 26 26 26 26 26 26 26 26 26 27 27 27 27 27 27 27 27 27 27 26 26 26 26 26 26 27 27 27 27 28 28 28 28 28 28 29 29 29 29 29 29 29
26 26 26 27 27 27 27 27 27 27 27 27 27 27 27 27 27 27 26 26 26 26 26 26 26 26 26 26 26 26 26 26 26 26 25 25 25 26 26 25 25 25 26 26 25 26 26 26 26 26 26 27 27 27 27 27 27 27 27 27 27 27 27 27 27 27 27 27 27 27 27 27 28 28 28 28 28 29 29 29 29 29 28 28 28
26 25 25 26 28 28 27 28 27 27 27 27 28 28 27 27 27 27 27 27 26 27 27 27 26 26 26 26 26 26 26 26 26 26 25 25 26 26 26 25 25 26 26 26 26 26 26 26 26 26 26 27 27 27 27 27 27 27 27 27 27 27 27 27 27 27 27 27 27 27 27 27 28 28 28 28 28 28 28 28 28 28 28 28 28
26 25 24 25 27 27 27 28 28 28 28 28 28 28 28 28 28 28 27 27 27 27 27 27 27 27 27 26 26 26 26 26 26 26 26 26 26 26 26 26 26 26 26 26 26 26 26 26 26 27 27 27 27 27 27 27 27 27 27 27 27 27 27 27 27 27 27 26 27 27 27 27 27 28 28 28 28 27 27 26 27 27 27 27 27
25 24 24 25 25 24 25 27 28 27 28 28 28 28 28 28 28 28 28 27 27 27 27 27 27 27 27 26 26 26 26 26 26 26 26 26 26 26 26 26 26 26 26 26 26 26 27 27 27 27 27 27 27 27 27 27 27 27 26 26 26 26 26 26 26 26 26 26 26 26 27 27 27 27 27 27 26 26 26 26 26 26 26 26 26
24 24 25 26 26 24 24 26 27 27 27 27 28 28 28 28 28 28 28 27 27 27 27 27 27 27 27 27 26 26 26 26 26 26 26 26 26 26 26 26 26 26 26 26 27 26 26 26 26 26 26 26 27 27 27 27 27 27 26 26 26 26 26 26 26 26 26 26 26 26 26 26 26 26 26 26 25 25 26 26 26 25 25 26 26
24 24 23 24 25 25 25 26 26 27 27 27 27 27 27 27 27 28 28 28 27 27 26 26 26 26 26 26 26 26 26 26 26 26 26 26 26 26 26 26 26 26 26 26 26 26 24 24 25 26 26 26 26 27 27 27 27 27 27 27 27 26 26 26 26 26 25 25 26 25 25 25 25 25 25 25 25 25 26 25 25 25 25 25 25
24 23 22 22 23 24 24 25 25 25 26 26 26 26 27 27 27 27 27 27 27 27 26 26 25 25 25 25 26 26 26 26 26 26 26 25 25 26 26 26 26 26 26 26 25 25 24 25 25 26 26 26 26 26 27 27 27 27 27 27 27 26 26 26 26 26 25 25 25 25 25 25 25 25 25 25 25 25 25 25 24 24 24 24 24
24 23 22 22 23 23 23 24 24 24 25 25 25 25 26 26 26 26 26 26 27 27 26 26 25 25 25 25 26 26 25 25 26 26 26 26 26 26 26 26 26 26 27 26 25 25 25 25 26 26 26 26 26 26 26 26 26 27 26 26 26 26 26 26 26 26 25 25 25 25 25 25 25 25 25 24 24 24 24 24 24 24 24 23 23
23 22 22 22 23 23 23 23 24 24 24 24 24 25 25 25 25 25 25 25 25 26 26 25 25 25 25 25 25 26 25 25 26 26 26 26 26 26 26 25 24 24 26 26 26 25 25 25 26 26 26 26 26 26 26 26 26 26 26 26 25 25 25 25 25 25 25 25 25 25 25 24 25 25 24 24 24 24 24 24 24 24 23 23 23
21 21 21 21 22 22 22 23 23 23 24 24 24 24 24 24 24 24 23 23 24 24 25 24 24 24 25 25 25 25 25 25 25 26 26 26 26 26 26 25 24 23 25 26 26 25 25 25 25 26 26 26 26 26 26 26 26 26 26 25 25 25 25 25 25 25 25 25 25 25 25 24 24 24 24 24 24 24 24 24 24 23 23 23 23
20 20 20 21 21 21 21 22 22 22 22 23 23 23 23 24 23 23 23 22 23 23 23 24 23 23 24 24 25 25 25 25 25 25 26 26 26 26 25 24 24 24 24 25 26 25 25 25 25 25 26 26 26 26 25 25 25 25 25 25 25 25 25 25 25 25 25 25 24 24 24 24 24 24 24 24 24 24 24 24 23 23 23 23 23
19 19 20 20 20 20 21 21 21 21 21 21 22 22 22 23 23 22 22 22 22 22 23 23 23 23 23 23 24 24 24 25 25 25 25 25 25 25 24 23 24 24 24 24 25 25 25 25 25 25 25 25 25 25 24 24 24 24 24 24 25 25 25 25 24 24 24 24 23 23 23 23 24 24 24 24 25 24 24 24 24 23 23 23 23
19 19 19 19 20 20 20 20 20 20 20 20 21 21 21 21 21 21 21 21 21 22 22 22 22 22 22 22 23 23 23 24 25 25 25 25 24 24 24 24 24 24 24 24 25 25 25 24 24 24 24 24 24 24 24 24 24 24 24 24 24 24 24 24 24 23 23 23 23 23 24 24 24 24 25 25 25 24 24 24 23 23 23 22 22
19 20 20 19 19 19 19 19 19 19 19 20 20 20 20 20 20 21 21 21 21 21 22 22 22 22 22 22 22 22 23 23 24 24 24 24 24 24 23 24 24 23 23 23 24 24 24 24 24 23 23 23 23 23 23 23 23 23 24 24 24 24 24 23 23 23 23 23 24 24 24 25 25 25 25 25 25 25 24 24 23 23 23 22 22
20 20 20 19 19 19 19 19 19 19 19 19 19 19 19 20 20 20 20 20 20 21 21 21 21 21 21 21 21 22 22 22 22 23 23 24 24 24 23 23 23 23 23 23 23 23 23 23 23 22 22 23 23 23 23 23 23 23 23 23 23 23 23 23 23 23 24 24 24 24 24 24 25 25 25 25 24 24 23 23 23 22 22 22 22
20 20 20 19 19 19 19 19 19 19 19 19 19 19 19 20 20 20 20 20 20 20 20 20 20 20 20 20 20 20 20 21 21 22 22 23 23 23 23 23 23 23 23 23 23 22 22 22 22 22 22 22 22 22 22 22 23 23 23 23 23 23 23 23 23 24 24 24 24 23 23 24 24 24 23 23 23 23 23 23 22 22 22 22 22
20 20 20 20 19 19 19 19 19 19 19 19 19 18 18 19 19 19 19 19 19 19 19 19 19 19 18 18 19 19 19 19 20 20 21 21 22 22 22 22 22 23 23 22 22 22 21 21 21 21 21 21 21 22 22 22 23 23 23 23 23 23 23 23 23 23 23 23 23 23 23 23 23 23 23 22 22 23 22 22 22 22 22 22 22
20 19 19 19 20 20 19 19 19 19 19 19 18 18 18 18 18 18 18 18 18 18 18 18 17 17 17 17 17 18 18 18 19 19 20 20 21 21 22 22 22 22 22 22 21 21 20 20 20 20 20 21 21 21 21 22 22 22 22 22 22 23 23 23 23 23 22 22 22 23 23 23 22 23 23 22 22 22 22 22 22 22 22 22 21
20 20 19 19 19 20 20 19 20 20 19 19 18 18 18 18 18 18 18 18 17 17 17 17 17 16 16 16 16 16 17 17 17 18 18 19 20 20 21 21 21 21 21 20 19 19 19 19 19 20 20 20 20 21 21 22 22 22 22 22 22 23 22 23 23 22 21 22 22 22 22 22 22 22 22 22 22 22 22 22 21 21 21 21 21
20 20 20 20 20 20 19 19 20 20 19 19 19 18 18 18 18 18 18 18 18 17 17 17 17 16 16 16 16 16 16 16 17 17 17 18 18 19 19 20 20 20 20 20 19 18 18 18 18 19 19 20 20 21 21 21 22 22 22 22 22 23 22 22 22 21 21 22 22 22 22 21 22 22 22 22 22 21 21 21 21 21 21 21 21
20 20 20 20 20 20 20 19 19 19 19 19 19 19 18 18 18 18 18 18 18 17 17 17 16 16 16 16 15 15 16 16 16 17 17 17 17 17 18 18 18 19 19 19 19 18 18 18 18 19 20 20 21 21 21 22 22 22 22 22 22 22 22 22 21 21 21 21 21 21 21 21 21 21 22 21 21 21 21 21 21 21 21 21 21
20 20 20 20 20 20 20 20 19 19 19 19 19 19 19 19 18 18 18 18 18 18 17 17 17 16 16 16 15 15 15 16 16 16 16 17 17 17 17 17 17 18 18 18 18 18 18 18 19 19 20 20 21 22 22 22 22 22 22 22 22 22 22 21 21 21 21 21 21 21 21 21 21 21 21 21 20 20 20 20 20 21 21 20 21
20 20 20 21 21 20 20 20 19 19 19 19 19 19 19 19 19 19 18 18 18 18 18 17 17 16 16 16 15 15 16 16 16 17 17 17 17 17 17 17 17 18 18 19 19 19 19 19 20 20 21 21 21 22 22 22 22 22 22 22 22 22 21 21 21 21 21 21 21 21 20 20 20 20 20 20 19 19 20 20 20 20 20 20 20
20 20 20 21 21 21 20 20 20 19 18 18 18 18 18 18 18 18 18 18 18 18 17 17 17 17 16 16 16 16 16 17 17 17 17 17 17 17 17 18 18 18 19 19 20 20 20 20 20 21 21 21 21 22 22 22 22 22 21 21 21 21 20 20 20 20 20 20 20 20 20 20 20 19 19 19 19 19 19 19 19 19 19 19 19
20 20 20 20 20 20 19 19 19 19 18 18 18 17 17 17 17 17 17 17 17 17 17 17 17 16 16 16 16 16 16 16 17 17 17 17 17 17 18 18 18 18 18 19 20 20 19 19 20 21 20 21 21 21 21 22 21 21 20 20 20 20 20 20 20 19 19 19 19 19 19 19 19 19 19 19 18 19 19 19 18 18 18 18 18
19 19 19 19 19 19 18 18 18 18 18 18 17 17 17 17 17 17 17 17 17 17 17 17 16 16 17 16 16 16 16 16 16 16 17 17 17 17 17 17 18 18 18 18 19 19 19 19 20 20 20 20 20 20 20 20 20 19 19 19 19 19 19 19 18 18 18 19 18 18 18 18 18 18 18 18 18 18 18 18 18 18 18 18 17
19 19 19 18 18 18 18 18 18 17 17 17 17 17 17 17 17 17 17 16 16 16 16 16 16 16 16 16 16 16 16 15 15 15 16 16 16 16 16 16 17 17 17 18 18 18 18 19 19 20 20 19 19 19 19 19 19 18 18 18 18 18 18 18 18 18 18 18 17 17 17 17 17 17 17 17 17 17 17 17 17 17 17 16 16
18 18 18 18 17 17 17 17 17 17 17 17 17 17 17 16 16 16 16 16 16 16 16 16 16 16 16 16 15 15 15 15 15 15 15 15 16 16 16 16 16 16 17 17 17 17 17 18 18 18 18 18 18 18 18 18 18 17 17 17 17 17 17 17 17 17 17 17 17 17 17 17 17 17 17 17 16 16 16 16 16 16 15 15 15
18 17 17 17 17 17 17 17 17 17 17 17 17 17 17 17 16 16 16 16 16 16 16 15 15 15 15 14 14 14 14 14 14 14 15 15 15 16 16 16 16 16 16 17 17 16 17 17 16 16 17 16 17 17 17 17 16 16 16 16 16 16 16 16 16 17 16 16 16 16 16 16 16 16 16 16 15 15 15 14 14 14 14 14 13
17 17 17 17 17 17 17 16 16 16 17 17 17 17 17 17 17 16 16 16 15 15 15 15 15 15 14 14 14 13 13 13 14 14 15 15 15 16 16 16 16 16 16 16 16 16 16 16 16 16 16 15 16 16 16 16 15 15 15 16 16 15 15 16 16 16 16 16 15 15 15 15 15 14 14 14 14 14 13 13 13 13 12 12 12
17 17 17 16 16 16 16 16 16 16 16 16 17 17 17 17 17 17 17 16 15 15 15 14 14 14 14 14 14 14 14 14 14 14 14 15 15 16 16 16 16 16 16 16 15 15 15 15 15 15 15 15 15 15 15 15 15 15 15 15 15 15 15 15 15 15 15 14 14 14 14 13 13 13 13 13 12 12 12 12 12 11 11 11 12
17 17 16 16 16 16 16 16 15 15 15 16 16 16 17 17 17 17 17 16 16 15 15 14 13 14 14 13 14 14 14 14 14 14 14 15 15 15 15 15 15 15 15 15 15 15 15 14 14 14 14 14 14 14 14 14 14 14 14 15 15 14 14 14 14 14 13 13 13 12 12 12 12 12 12 11 11 11 11 11 11 11 11 11 11
16 17 16 16 16 16 15 15 15 15 16 16 16 16 17 17 17 17 17 17 16 16 15 13 13 14 14 13 14 14 14 15 15 15 14 14 14 14 14 14 14 14 15 14 14 14 14 14 14 14 14 14 14 14 14 14 14 14 14 14 14 14 14 13 13 13 12 12 12 11 11 11 11 11 11 10 10 10 10 10 10 10 10 10 10
16 16 16 16 16 16 15 15 16 16 16 16 16 16 17 17 17 17 17 17 17 16 14 13 13 13 13 13 14 14 14 15 15 14 14 14 14 14 14 14 14 13 13 13 13 13 13 13 13 13 13 14 14 14 14 13 13 13 13 14 13 13 13 12 12 12 12 11 10 10 10 10 10 10 10 9 9 9 9 9 9 9 9 9 9
16 16 16 16 16 15 15 15 16 16 16 16 16 16 17 17 17 17 17 17 16 15 13 13 13 13 13 13 14 14 14 15 14 14 13 13 14 13 13 13 13 13 13 13 13 13 13 13 13 13 13 13 13 13 13 13 13 13 13 12 12 12 11 11 11 11 10 10 9 9 9 9 9 9 9 8 8 8 8 8 8 8 8 8 9
16 16 16 16 16 15 15 16 16 16 16 16 16 16 16 16 16 16 16 16 16 14 13 13 12 12 12 13 13 14 14 14 14 13 13 13 13 13 13 13 12 12 12 12 12 12 12 12 12 12 12 12 12 12 12 12 12 12 12 11 11 10 10 10 10 10 9 9 9 9 8 8 8 8 8 7 7 7 7 7 7 8 8 8 8
16 16 16 16 16 16 15 15 16 16 16 16 16 16 16 16 16 16 16 16 15 14 13 13 12 12 12 13 13 13 13 13 13 13 13 13 13 12 12 12 12 11 11 11 11 11 11 12 12 11 11 11 11 11 10 11 11 11 11 10 10 9 9 9 8 8 8 8 8 8 7 7 7 7 6 6 6 6 7 7 7 7 7 7 7
16 16 16 16 16 15 15 15 16 16 16 16 16 16 15 15 15 15 15 15 14 14 13 13 13 12 12 12 13 13 12 12 12 12 12 12 12 11 11 11 11 11 10 10 11 11 11 11 11 10 10 10 10 10 10 10 10 10 10 9 9 8 8 7 7 7 7 7 7 7 7 6 6 6 6 6 6 6 6 6 6 7 7 7 7
16 16 16 16 16 16 15 15 16 15 15 15 15 15 15 15 15 15 15 15 15 14 14 13 12 12 12 12 12 12 12 11 11 11 11 11 11 10 10 10 10 10 10 9 10 10 10 10 10 10 9 9 9 9 9 9 9 9 9 9 8 8 7 7 6 6 6 7 7 6 6 6 6 5 5 5 5 5 6 6 6 6 6 6 6
16 16 16 16 16 16 15 15 15 15 15 15 15 15 15 15 14 14 14 14 14 14 13 12 12 12 12 12 12 12 11 11 11 11 10 10 10 10 10 10 10 10 9 9 9 10 10 9 9 9 9 8 9 9 8 8 8 8 8 8 8 7 7 6 6 6 6 6 6 6 6 6 5 5 4 5 5 5 5 5 5 5 5 5 5
15 15 15 15 15 15 15 15 15 15 14 14 14 14 14 14 14 14 14 14 13 13 13 12 12 12 12 11 11 11 11 11 10 10 10 10 9 9 9 9 9 9 9 9 9 9 9 9 8 8 8 8 8 8 8 7 7 7 7 8 7 7 6 6 5 5 5 5 5 5 5 5 5 4 4 4 4 4 4 5 5 5 5 5 5
14 14 14 14 14 14 15 15 15 15 15 14 14 14 14 14 14 13 13 13 13 13 12 12 12 11 11 11 11 11 10 10 10 10 10 10 9 9 9 9 9 9 9 8 8 8 8 8 8 8 8 7 7 7 7 7 6 7 7 7 6 6 5 5 5 5 5 5 5 5 5 5 4 3 3 4 4 4 4 4 5 5 5 5 5
14 14 14 13 13 13 14 14 14 14 14 14 14 14 14 13 13 12 12 12 12 12 11 11 11 11 11 11 11 10 10 10 10 10 10 9 9 8 8 8 8 8 8 8 8 8 7 7 7 7 7 7 7 7 6 6 6 6 6 6 5 5 5 5 5 5 5 4 4 4 4 4 3 3 3 3 4 4 4 4 4 5 5 5 5
13 13 13 14 14 14 14 14 14 14 14 14 14 13 13 13 12 12 11 11 11 11 11 10 10 10 11 10 10 10 10 9 9 9 9 9 8 8 8 8 8 8 8 8 7 7 7 7 7 6 6 6 6 6 6 5 5 5 5 5 5 5 4 4 4 4 4 4 4 3 3 3 3 3 3 3 4 4 4 4 4 5 5 5 5
12 13 13 14 14 14 14 14 14 14 13 13 13 13 13 13 12 12 11 11 10 10 10 10 10 10 10 10 10 9 9 9 9 9 8 8 8 8 8 8 7 7 7 7 7 6 6 6 6 6 6 6 6 5 5 4 4 4 4 4 4 4 4 4 4 4 3 3 3 3 3 3 3 3 3 3 4 4 4 4 4 5 5 5 5
12 12 13 13 13 13 13 13 13 13 13 13 13 13 12 12 12 11 11 10 10 10 10 10 10 9 9 9 9 9 9 8 8 8 8 8 8 7 7 7 7 6 6 6 6 6 6 6 6 6 5 5 5 5 4 4 4 4 4 4 4 4 3 3 3 3 3 3 3 3 3 3 3 3 3 3 4 4 4 4 4 5 5 5 5
11 11 11 12 12 12 13 13 13 12 12 13 12 12 11 11 11 11 10 10 10 10 10 9 9 9 8 8 8 8 8 8 8 8 8 7 7 7 6 6 6 6 6 6 6 6 5 5 5 5 5 5 4 4 4 4 4 4 4 3 3 3 3 3 3 3 3 3 3 3 3 3 3 3 3 3 3 4 4 4 5 5 5 5 6
Height
831 833 835 837 838 839 841 842 843 844 845 847 848 849 850 850 851 853 853 854 855 856 857 858 859 860 861 862 863 864 865 865 866 867 867 868 869 869 870 870 870 870 871 871 870 871 870 870 870 870 870 870 870 869 869 870 870 869 869 869 869 869 869 869 869 868 868 867 867 866 865 864 863 863 862 861 861 860 859 859 858 857 855 854 853
829 831 833 835 836 837 839 841 842 843 844 846 847 848 849 849 850 851 852 853 854 855 856 857 858 859 860 861 862 863 863 864 865 866 867 867 868 868 869 869 869 869 870 870 869 869 869 869 869 869 869 869 869 869 869 869 869 869 868 868 868 868 868 868 868 868 867 867 866 865 865 864 863 862 862 861 860 860 859 858 857 856 855 854 853
826 829 831 833 834 836 837 839 840 842 843 844 845 847 848 848 849 850 851 852 853 854 855 856 857 857 858 860 860 861 862 863 864 865 865 866 867 867 868 868 868 868 868 868 868 868 868 868 868 869 869 869 869 869 869 869 868 868 868 867 867 868 868 868 868 868 867 866 866 865 864 863 863 862 861 861 860 859 858 857 856 856 855 854 853
824 826 829 831 832 834 836 837 839 840 841 843 844 845 846 847 848 849 850 851 852 853 854 855 856 856 857 858 859 860 861 861 862 863 864 865 866 866 867 867 867 867 867 867 868 868 868 868 868 868 868 868 868 868 868 868 868 867 867 867 867 867 867 867 867 867 867 866 865 864 864 863 862 862 861 860 859 859 858 857 856 855 854 854 853
822 824 827 829 831 833 834 835 837 838 840 841 842 843 844 845 846 847 848 849 850 851 853 853 854 855 856 857 858 858 859 860 861 862 863 864 864 865 865 866 866 866 866 866 867 867 867 867 867 867 867 867 867 867 867 867 867 867 867 866 866 866 866 867 867 867 866 866 865 864 863 863 862 861 860 859 858 858 857 856 855 854 854 853 853
820 824 829 829 829 831 832 834 835 836 838 839 840 841 842 843 844 845 846 847 848 850 851 852 853 854 854 855 856 857 858 859 860 860 861 862 863 864 864 864 864 865 865 865 865 866 866 866 866 866 866 866 866 866 866 866 866 866 866 866 866 866 866 866 866 866 866 865 865 864 863 862 861 859 859 858 857 857 856 855 854 854 853 853 853
819 825 830 828 828 830 831 832 834 835 836 837 839 840 841 841 842 843 844 845 846 847 849 850 851 852 853 854 855 855 856 857 858 859 860 861 861 862 862 863 863 863 863 864 864 864 864 864 864 864 864 864 864 865 865 865 865 865 865 865 866 866 866 866 866 865 865 865 864 864 863 862 861 859 858 858 857 857 856 855 854 853 853 852 852
819 825 828 826 827 830 831 831 832 833 835 835 837 838 839 840 840 841 843 843 844 846 846 848 849 850 851 852 853 854 855 856 857 857 859 859 860 861 861 861 862 862 862 862 862 862 862 862 863 863 863 862 863 863 863 864 864 864 864 865 865 865 865 865 865 865 865 864 864 863 863 862 861 860 859 858 857 856 856 855 854 853 852 851 851
818 823 824 823 826 830 832 831 831 832 833 833 835 836 836 838 838 839 841 842 844 844 845 847 848 848 849 850 852 853 853 854 855 856 857 858 858 859 860 860 860 860 861 861 861 861 861 861 862 862 863 862 862 862 862 862 863 863 863 864 864 864 864 864 864 864 864 863 863 863 862 862 861 860 859 858 857 857 856 855 854 853 852 850 849
817 820 822 823 824 828 830 830 830 831 831 832 833 834 835 836 837 838 839 840 842 843 844 845 846 848 849 849 850 851 852 852 853 854 855 856 857 857 858 858 859 859 859 859 859 860 861 861 861 862 862 861 861 861 861 861 862 862 862 862 863 863 863 863 863 863 863 863 862 862 861 861 860 860 859 858 857 856 855 855 854 853 852 849 847
817 820 823 824 825 827 829 829 829 829 830 831 832 832 833 834 835 837 838 838 840 841 842 843 844 846 848 849 849 850 850 851 851 852 853 854 855 855 856 857 857 857 858 858 858 859 859 859 859 860 860 859 859 860 860 860 861 861 861 861 861 861 861 861 861 862 862 861 861 861 860 860 859 859 858 857 856 856 855 855 854 853 852 850 847
816 819 822 825 826 826 828 828 828 828 829 830 831 832 833 833 834 836 836 837 838 839 840 841 842 843 845 847 849 849 849 850 850 851 851 852 853 853 854 855 855 856 856 856 856 857 856 857 858 858 858 857 857 858 859 859 860 860 860 860 860 860 860 860 860 860 860 860 859 859 859 858 858 857 857 856 855 855 854 854 853 852 851 851 849
816 818 820 823 824 825 826 827 827 828 828 829 830 830 832 833 834 835 836 836 837 838 838 839 840 841 842 844 847 848 848 848 849 849 849 850 851 851 852 853 855 856 856 854 855 855 855 857 857 857 857 857 857 857 857 858 858 859 859 859 859 859 859 859 859 859 859 858 858 857 857 857 857 856 856 855 854 854 853 852 852 851 850 850 848
818 818 819 821 822 823 825 825 826 827 827 828 829 830 831 832 833 834 835 836 836 837 838 838 839 840 841 842 845 846 846 847 847 847 848 848 848 849 850 851 854 857 857 855 854 854 855 856 856 856 856 856 856 855 855 856 857 857 858 858 858 858 858 858 858 857 857 857 857 856 856 856 856 855 855 854 853 853 852 851 850 850 849 849 848
820 819 819 820 821 822 823 824 825 825 826 827 828 829 831 832 833 834 835 836 836 836 837 838 839 840 840 841 842 843 844 845 845 845 846 846 847 848 848 849 852 854 855 855 854 854 854 854 854 854 855 855 854 854 854 855 855 855 856 857 857 857 857 857 857 857 857 856 856 856 855 855 855 854 854 853 852 852 851 850 850 849 848 848 847
823 820 820 820 821 822 823 824 824 825 826 827 827 828 830 831 832 833 834 835 836 836 837 837 838 839 839 839 840 841 842 843 843 844 844 844 845 846 846 848 850 851 852 853 853 853 852 852 852 853 853 853 854 853 854 854 854 854 854 855 855 855 855 855 856 855 855 855 855 855 854 854 853 853 852 851 850 850 849 849 849 848 848 847 845
823 821 821 821 822 822 823 823 824 825 826 827 827 828 829 830 831 832 833 834 835 836 836 836 837 837 837 838 838 839 839 840 841 841 842 843 844 844 845 846 848 849 850 852 852 851 851 850 851 852 852 852 853 853 853 853 853 853 853 853 854 854 853 854 854 853 854 854 853 853 853 852 852 851 850 849 849 849 848 848 848 847 847 846 845
822 822 822 822 822 823 823 824 824 825 825 826 826 827 828 829 830 831 832 833 834 834 835 835 836 836 836 836 836 837 838 838 839 840 841 842 843 843 844 845 846 848 849 850 850 849 849 849 849 849 850 850 851 852 852 853 853 853 853 853 853 853 852 852 852 852 853 852 852 852 851 850 850 849 848 848 847 847 847 847 847 847 846 846 845
822 823 823 823 824 824 824 824 825 825 825 825 826 827 827 828 829 829 831 832 832 832 832 834 835 835 835 835 835 835 836 836 837 838 839 840 841 842 843 844 845 847 847 848 848 848 848 848 848 848 848 849 850 850 851 851 852 852 852 852 852 852 851 851 851 851 851 851 851 850 849 849 849 848 847 846 845 845 846 846 847 846 846 845 844
823 824 824 824 825 825 825 826 826 826 826 826 826 827 827 827 827 828 829 830 830 831 831 832 832 833 834 834 834 834 835 835 836 837 838 839 840 840 842 843 844 845 845 845 846 846 846 847 847 847 847 847 848 849 850 850 850 851 851 851 851 851 850 850 850 849 849 849 849 849 848 848 848 847 846 845 845 845 846 846 846 846 845 845 844
824 825 825 825 826 826 827 827 827 827 827 827 827 827 827 826 826 826 827 828 829 829 830 830 831 832 833 834 834 834 835 835 836 837 838 839 839 839 840 841 842 843 843 843 844 844 845 845 846 846 847 847 847 848 848 849 849 849 849 849 849 849 849 849 849 848 848 848 847 847 848 848 847 847 846 846 846 846 846 846 845 845 845 844 843
826 826 827 827 827 827 828 828 828 828 829 829 828 828 828 828 827 827 828 828 828 829 830 830 831 832 833 834 834 835 835 836 837 837 837 838 838 838 839 839 840 841 842 842 843 843 844 845 845 846 846 846 846 847 847 847 847 847 847 848 848 848 848 848 848 847 847 846 846 846 847 847 846 846 846 845 845 845 845 845 844 844 844 844 843
828 828 828 828 828 829 829 829 829 830 830 830 830 830 829 830 829 829 830 830 830 830 831 832 833 834 834 835 835 835 836 837 837 837 837 838 838 838 838 838 838 839 840 842 843 843 844 845 845 845 845 845 846 846 845 845 845 846 846 846 847 847 847 847 846 846 846 845 845 846 846 846 846 845 845 844 844 844 844 843 843 843 843 843 842
830 830 830 830 830 830 830 831 831 831 832 832 831 831 831 831 831 831 832 832 832 832 833 834 834 835 836 837 837 837 837 838 838 838 838 839 838 838 838 837 837 838 839 840 841 843 845 846 845 844 844 845 845 845 844 844 844 844 844 845 845 845 845 845 845 845 845 844 844 845 845 845 845 845 845 845 844 844 843 843 843 842 842 842 841
830 831 831 831 831 832 832 832 833 833 833 833 833 833 833 833 833 834 834 834 834 834 835 836 836 837 838 838 838 839 839 838 839 839 839 839 838 838 838 837 837 838 839 839 841 843 844 846 846 845 844 844 844 843 843 843 842 843 843 843 843 844 844 844 844 844 844 843 843 844 844 844 845 845 845 845 844 843 843 843 842 842 841 841 840
831 831 831 832 832 833 833 833 834 834 834 834 834 834 834 834 834 834 835 835 836 836 836 837 837 838 839 839 839 839 839 839 839 839 840 840 839 839 838 837 836 837 839 840 841 842 843 845 845 844 842 842 842 842 842 842 841 841 841 842 842 843 843 843 844 844 843 843 843 843 843 844 844 844 844 843 843 843 843 843 842 841 841 840 840
831 831 831 832 833 833 834 834 834 835 835 835 835 835 835 835 835 835 835 836 836 836 837 838 838 839 840 840 840 840 840 840 840 840 840 840 840 840 839 838 837 838 839 840 841 841 842 842 842 841 840 839 839 839 840 840 841 841 841 841 842 842 843 843 844 843 843 842 842 842 843 843 843 843 843 842 842 843 843 842 842 841 841 840 839
832 832 832 833 833 834 835 835 835 836 836 836 836 836 837 837 837 836 837 837 837 837 838 838 839 839 840 840 840 840 841 841 841 841 841 841 841 841 840 839 839 838 839 839 840 840 841 840 839 838 837 837 837 838 839 839 840 840 841 842 842 842 843 843 843 843 842 841 841 842 842 842 842 842 842 842 842 843 842 842 842 841 841 840 839
833 834 833 833 834 835 835 836 836 837 837 837 837 838 838 838 838 838 839 839 839 839 839 839 840 840 840 840 841 841 842 842 842 842 842 841 841 841 841 840 840 839 839 839 839 840 840 840 838 837 837 836 837 837 837 838 839 841 842 842 842 842 843 843 843 843 842 841 841 841 842 842 842 842 842 842 842 842 842 842 841 841 840 840 839
834 834 834 833 834 835 836 837 837 838 838 839 839 839 839 840 840 839 840 840 840 841 841 840 841 841 841 841 842 842 842 842 842 842 842 842 842 841 841 840 840 839 839 839 839 839 840 839 839 838 837 836 837 837 837 837 839 841 842 842 843 843 844 844 843 843 842 841 841 841 842 842 842 842 842 843 843 842 842 841 841 840 840 839 839
835 834 834 834 834 835 836 838 838 839 839 840 840 840 840 841 841 840 841 841 841 841 841 842 842 842 842 842 843 843 843 843 843 843 842 842 842 841 841 841 840 840 839 839 840 840 840 839 839 838 838 837 837 838 838 838 840 841 842 843 843 844 844 844 844 843 842 842 842 842 842 842 842 843 843 843 842 842 841 841 840 840 840 839 839
835 835 835 835 834 835 836 838 839 840 840 840 841 841 841 842 842 842 842 842 842 842 842 843 843 843 843 843 843 843 843 843 843 843 842 842 842 841 841 841 840 840 840 840 841 841 840 839 839 839 838 838 838 838 839 839 840 842 842 843 844 844 845 845 844 844 843 843 843 843 843 843 843 843 843 842 842 841 841 840 840 840 839 839 839
835 835 835 835 835 835 836 837 839 840 840 841 841 842 842 842 842 842 843 843 843 843 843 844 844 844 844 844 843 843 843 843 843 842 842 842 842 841 841 841 841 841 841 841 841 841 840 840 839 839 839 839 839 839 840 840 841 842 843 844 844 845 845 845 845 844 844 844 844 843 843 843 843 842 842 842 841 841 841 840 840 840 839 839 839
835 835 836 836 835 835 835 837 838 839 839 840 841 841 841 842 841 841 842 842 843 844 844 844 845 845 845 844 844 844 844 843 843 842 842 842 842 841 841 842 841 841 842 842 842 842 841 841 841 840 840 841 841 841 841 842 842 843 844 845 845 845 846 846 845 845 845 844 844 843 843 843 842 842 842 842 841 841 841 841 841 841 840 840 840
835 835 836 836 836 836 836 836 837 838 839 839 840 840 841 841 841 841 841 841 842 844 844 845 846 845 845 845 845 844 844 844 843 843 843 843 842 842 842 842 842 841 842 842 842 842 842 842 842 842 842 842 842 843 843 843 843 844 845 845 845 845 845 845 845 845 845 844 844 843 843 843 843 843 843 842 842 842 842 842 842 841 841 841 840
835 835 836 836 836 836 837 837 837 838 838 838 839 840 840 841 841 841 841 841 842 843 844 845 846 846 846 846 845 845 845 844 844 844 843 843 843 843 842 842 842 842 843 843 843 843 843 843 843 843 843 843 844 844 844 844 844 845 845 845 845 845 845 845 845 845 844 844 844 844 843 843 843 843 843 843 843 843 843 843 843 843 842 842 841
834 835 835 836 836 836 837 837 837 837 838 838 839 839 840 840 841 841 841 841 842 842 843 845 846 846 846 846 846 846 845 845 844 844 844 844 844 844 843 843 844 844 844 844 844 844 844 844 845 844 844 845 845 845 845 845 845 845 845 846 845 845 845 845 845 845 844 844 844 844 844 844 844 844 844 844 844 844 844 844 844 844 843 843 842
833 834 834 835 835 836 837 837 837 837 838 838 839 839 840 840 841 841 841 842 841 842 843 845 846 846 846 846 846 846 845 845 845 844 844 845 845 844 844 844 844 845 845 845 845 845 845 845 845 845 845 845 845 845 845 845 845 845 845 846 846 845 845 845 844 845 845 845 845 845 845 845 845 845 845 845 845 845 845 845 845 844 844 843 842
832 832 833 834 834 835 836 836 837 837 837 838 838 839 839 840 840 841 841 841 841 841 843 844 846 846 846 846 846 846 846 846 845 845 845 845 845 845 845 845 845 846 846 846 846 846 846 846 846 846 846 846 846 845 845 845 845 846 846 846 846 845 845 845 845 845 846 846 846 846 846 846 846 846 845 845 846 846 845 845 845 844 844 843 842
830 831 832 833 833 834 835 835 836 836 837 837 837 838 838 839 839 840 841 841 842 842 843 844 845 845 846 846 845 845 845 845 845 845 845 845 846 846 846 846 847 847 847 847 847 847 847 847 847 847 846 846 846 846 846 846 846 846 846 846 846 846 846 846 846 846 846 846 846 846 846 846 846 846 846 846 846 846 846 845 845 844 844 843 842
828 829 830 831 832 833 833 834 835 835 836 837 837 837 837 838 838 839 840 841 842 842 843 844 844 845 845 845 845 845 845 845 845 845 845 845 846 846 846 847 847 847 847 847 848 848 848 848 848 847 847 847 847 847 846 847 846 846 847 847 847 847 847 847 847 847 847 847 847 847 847 847 847 846 846 846 846 846 845 845 845 844 844 843 842
828 828 829 829 831 832 833 833 834 835 835 836 837 837 837 837 838 839 840 841 842 842 843 844 844 845 845 845 845 845 845 845 845 846 845 846 846 846 847 847 848 848 848 848 848 848 848 848 848 847 847 847 848 847 847 847 847 847 847 847 847 847 848 848 848 848 848 848 848 848 847 847 847 847 847 846 846 846 845 845 844 844 843 843 842
827 827 828 829 829 830 832 833 833 834 835 835 836 837 837 838 838 839 840 841 842 842 842 843 844 844 845 845 846 846 846 846 846 846 846 846 846 847 847 848 848 848 848 848 849 849 849 849 848 848 847 848 848 848 848 848 848 847 847 848 848 848 848 848 848 848 848 848 848 848 847 847 847 846 846 846 846 845 845 844 844 843 843 842 842
827 827 828 828 829 830 831 832 832 833 834 835 836 837 837 838 839 839 840 841 842 842 842 843 844 844 845 845 845 845 846 846 847 847 847 847 847 847 848 848 848 848 848 848 849 850 850 849 848 848 848 848 849 849 849 848 847 848 848 848 848 848 848 848 848 848 848 848 848 847 847 847 846 846 846 846 845 845 845 844 844 843 843 842 841
828 827 827 828 829 830 831 832 833 833 834 835 836 837 837 838 839 839 840 841 841 842 842 843 844 845 845 845 845 845 845 846 847 847 847 847 847 847 848 848 848 848 848 849 849 849 849 849 848 848 848 849 849 850 849 848 848 848 849 849 849 848 848 849 849 848 848 848 847 847 846 846 846 846 846 846 845 845 844 844 844 843 842 841 840
825 825 826 827 829 831 832 833 833 834 834 835 836 836 837 838 838 839 840 840 841 842 842 843 844 844 845 844 844 844 845 846 847 847 847 847 847 847 847 847 848 848 849 849 849 849 848 848 849 849 849 849 850 850 849 848 848 849 849 848 849 848 848 849 849 848 848 847 847 846 846 845 845 845 845 845 845 844 844 843 843 842 841 840 839
823 823 825 826 828 830 831 832 832 833 834 835 835 836 837 838 838 838 839 840 841 841 842 842 843 843 843 844 844 844 845 846 847 847 847 847 847 847 847 847 847 848 848 849 849 849 848 848 849 849 849 850 850 850 849 847 848 849 849 849 849 849 848 848 848 848 847 847 846 846 846 845 845 845 844 844 844 843 843 842 841 840 839 838 837
825 825 826 826 827 828 829 830 830 831 832 833 834 835 836 837 837 838 839 840 841 842 842 842 843 843 843 843 844 844 845 846 846 847 847 847 847 847 847 847 847 847 848 849 849 849 849 848 849 849 849 850 850 850 849 848 848 849 849 849 849 848 848 848 848 847 847 846 846 846 845 844 844 843 843 843 843 842 841 840 839 838 838 837 836
826 826 826 826 826 826 827 827 828 829 830 831 833 834 835 836 836 837 838 839 840 841 841 842 842 843 843 843 843 844 844 845 846 847 847 847 848 847 847 846 846 847 847 848 849 849 849 849 849 849 849 850 850 850 849 848 849 849 849 849 848 848 848 847 847 847 846 846 845 845 844 843 843 842 842 841 841 840 839 838 838 837 836 835 834
823 825 825 824 823 824 825 826 827 828 829 830 832 834 834 835 836 836 837 838 839 840 841 841 842 842 842 843 843 844 844 844 845 846 846 847 847 847 847 846 846 847 847 848 849 849 849 849 849 849 849 850 850 849 849 849 849 849 848 848 848 847 847 847 846 846 845 845 844 843 843 842 841 841 840 840 839 839 838 837 837 836 835 834 833
819 821 823 823 823 823 824 826 827 828 829 830 831 833 834 835 836 837 838 838 839 840 840 841 841 842 842 842 843 844 844 844 844 845 846 847 847 847 847 847 846 847 847 848 849 849 849 849 848 849 849 850 850 849 849 848 848 848 848 848 848 847 847 846 845 845 844 843 842 842 841 840 840 839 839 838 838 837 837 836 836 835 834 833 832
Wind_Speed
23 23 22 21 21 20 20 20 19 19 19 18 17 15 14 15 15 13 13 14 13 12 12 13 14 13 14 14 12 12 12 12 12 12 11 11 10 10 10 9 9 10 9 8 8 6 6 5 6 7 6 6 6 7 5 6 5 6 4 3 3 3 3 2 2 6 9 9 10 11 11 11 11 9 10 10 8 10 11 10 11 13 13 14 15
23 24 23 22 22 21 20 20 19 18 18 18 17 17 15 15 14 13 13 14 12 11 12 13 14 14 13 13 13 13 14 13 12 13 13 12 11 11 12 11 11 11 11 10 9 8 7 6 6 7 6 6 6 5 5 5 3 3 2 3 3 3 1 1 3 5 7 10 11 11 10 10 9 8 8 8 9 10 11 11 12 11 11 11 12
22 24 24 22 22 24 23 21 20 19 18 18 20 19 17 16 15 14 13 14 13 13 12 12 13 14 13 13 14 14 14 14 14 14 14 13 13 13 12 12 12 11 12 12 10 9 9 8 7 7 6 7 7 5 6 6 3 1 1 2 2 1 1 2 2 4 6 9 11 11 10 9 8 8 8 8 9 10 11 11 11 10 9 9 12
19 22 25 23 21 23 24 22 21 21 20 19 19 19 17 16 16 16 15 15 14 15 15 14 13 13 14 14 14 14 14 14 14 15 15 14 14 14 13 12 11 11 11 11 10 10 10 9 8 8 7 8 7 5 6 6 4 1 0 1 2 1 2 3 3 4 5 7 9 10 11 11 11 10 10 10 9 10 12 12 12 11 10 10 12
18 18 21 24 21 19 21 22 21 20 19 18 18 18 18 16 15 16 17 17 16 16 16 16 14 14 15 14 14 14 13 13 13 15 15 15 14 13 13 13 12 11 11 10 11 11 11 11 10 9 9 8 6 6 6 6 5 4 2 2 2 2 2 3 4 5 7 9 10 11 13 13 13 12 10 10 11 13 15 16 16 15 14 13 12
17 15 16 21 24 22 20 21 21 20 19 18 18 18 19 18 18 18 18 18 19 19 17 17 16 15 15 14 13 13 13 12 13 14 14 14 13 12 12 13 13 13 11 11 12 12 12 11 10 9 9 8 7 7 7 6 5 4 3 3 3 3 3 4 5 6 7 9 10 11 12 12 12 14 14 14 15 16 16 16 15 15 15 14 14
16 16 17 17 18 19 18 18 19 19 19 18 18 18 17 18 19 21 21 21 20 18 17 17 17 16 15 16 15 14 14 14 13 13 13 13 13 13 13 13 14 13 12 12 12 12 12 12 12 11 10 9 9 8 8 6 5 4 4 3 3 2 3 3 4 5 7 8 9 9 11 12 14 16 17 15 13 13 14 16 16 17 18 17 17
17 16 16 13 9 6 8 13 14 14 15 14 14 15 14 12 15 16 18 21 20 17 17 18 18 18 16 16 17 16 15 15 15 14 13 14 13 13 12 13 15 14 13 13 13 13 14 14 13 12 11 11 10 9 8 7 6 4 3 2 2 1 2 3 4 5 7 9 10 9 11 13 13 14 15 14 13 14 16 17 17 19 20 21 20
15 12 11 13 12 8 7 9 12 12 13 10 9 12 11 8 10 10 10 14 15 14 15 16 17 18 17 16 17 17 16 15 15 15 14 15 14 13 12 12 14 15 15 14 14 14 12 11 11 11 10 10 10 10 9 8 7 6 5 4 3 4 5 5 5 6 7 8 9 9 10 11 12 13 13 12 13 16 17 18 19 19 22 24 25
13 11 9 10 13 11 11 11 11 12 13 11 8 10 10 7 7 8 8 10 10 9 11 12 11 13 16 17 17 17 16 14 14 15 14 14 14 15 15 13 12 14 14 12 11 10 8 7 7 9 8 8 10 11 11 10 9 8 7 7 8 8 8 8 7 7 7 8 9 9 10 11 12 12 12 12 13 16 16 17 18 20 22 24 25
12 12 11 9 9 9 8 9 10 11 12 13 11 11 10 8 7 7 8 10 10 8 8 10 9 5 9 15 17 16 15 14 14 15 15 14 14 15 15 13 12 12 12 8 5 4 5 6 6 6 6 7 10 12 13 11 11 10 9 8 8 8 8 8 8 8 8 9 10 10 11 12 12 13 12 12 14 15 14 15 17 19 19 17 19
8 8 10 9 8 7 6 6 7 8 9 10 11 11 10 9 8 7 7 8 9 9 7 9 10 7 4 9 14 14 14 15 15 15 14 14 15 16 15 14 13 12 11 8 5 3 1 1 4 5 4 5 7 9 11 10 10 9 7 5 5 5 5 7 7 8 9 10 11 12 12 13 14 13 12 12 14 14 15 16 17 17 16 14 16
8 8 9 9 8 7 7 7 7 7 7 7 8 9 9 9 9 8 7 6 7 9 8 7 7 8 7 7 11 13 15 17 16 15 15 14 14 16 17 15 11 10 10 9 7 4 4 4 5 7 6 5 6 7 8 8 8 7 7 6 5 5 5 5 6 8 9 10 11 13 12 12 12 11 11 12 14 15 17 18 17 16 15 15 17
9 8 7 6 6 7 8 9 10 10 9 8 7 8 8 8 8 7 6 5 5 7 8 6 6 9 11 11 11 10 11 14 14 14 14 14 14 15 16 15 8 8 8 8 6 5 6 5 5 7 7 6 6 5 7 9 8 6 6 6 4 3 4 5 6 7 8 9 10 11 9 8 9 10 11 13 14 16 17 17 16 16 16 15 16
9 8 7 5 5 5 6 7 8 9 9 8 9 9 9 8 8 7 6 6 6 7 7 7 7 9 10 11 11 10 8 9 11 11 12 12 13 13 12 13 12 5 6 5 3 4 6 6 5 6 8 8 8 7 8 9 8 6 5 5 3 2 3 4 5 5 6 7 7 8 8 8 10 11 12 14 16 17 17 15 14 14 13 13 14
9 8 6 4 3 3 4 5 5 6 6 7 7 8 10 10 9 8 6 5 6 7 7 7 7 6 8 9 10 11 11 10 9 10 10 10 10 8 8 11 13 10 6 4 3 4 5 5 5 6 7 8 8 7 7 7 7 7 6 5 4 2 1 1 1 2 2 3 5 7 9 10 12 13 15 16 17 16 14 14 12 11 11 13 13
12 11 10 7 5 3 4 4 5 5 6 6 6 7 9 9 8 9 8 6 6 6 5 6 6 6 7 9 9 10 11 12 11 10 10 10 8 5 5 8 12 12 9 7 6 5 5 6 7 7 8 8 7 6 4 4 5 5 5 4 4 2 2 4 4 2 3 4 7 9 12 12 12 12 13 13 14 14 14 13 11 9 10 11 11
15 15 15 13 11 9 6 5 4 4 4 4 5 6 7 8 9 10 10 9 9 9 8 7 6 5 6 8 9 9 10 10 11 11 11 12 10 6 6 9 13 14 12 10 8 7 6 6 7 8 8 8 7 6 4 4 4 4 4 4 3 3 4 5 5 5 6 9 10 10 10 9 7 8 10 11 13 13 12 8 5 5 8 9 10
13 13 13 13 14 14 12 10 8 7 5 4 3 3 4 6 9 10 10 9 10 11 12 11 9 8 8 9 9 10 10 10 10 11 11 11 10 9 9 10 13 14 13 10 9 8 8 8 7 8 8 7 6 5 3 3 3 3 4 4 4 4 5 5 6 8 9 10 7 5 4 4 6 8 9 7 7 7 5 5 5 6 9 11 13
14 14 14 12 11 12 13 14 14 13 12 10 8 6 3 3 7 10 10 10 9 8 9 11 11 10 9 9 8 8 8 8 9 10 10 10 10 11 11 11 12 13 12 11 11 10 10 10 9 8 7 7 6 5 3 3 2 2 3 4 6 6 6 6 6 6 8 6 3 5 6 5 6 8 9 11 12 12 10 9 9 9 10 13 15
15 15 15 14 12 12 12 12 13 14 14 13 12 10 8 5 3 5 7 9 9 8 9 12 12 10 9 8 6 6 5 4 5 6 7 8 9 10 11 12 12 13 12 12 12 12 11 10 9 8 7 6 5 5 4 3 3 3 4 5 6 6 6 6 4 4 4 2 4 6 6 5 6 8 10 11 11 11 9 8 8 9 11 13 15
14 14 14 14 14 14 13 12 12 12 12 13 13 12 11 10 9 8 8 8 8 10 11 12 11 10 9 7 5 5 4 3 4 4 5 6 8 10 12 12 12 12 12 12 12 10 9 9 8 7 6 6 5 4 4 4 4 5 5 5 6 6 6 6 4 3 1 3 4 5 5 6 6 6 7 10 12 11 11 10 9 9 9 11 13
13 13 13 13 14 13 13 12 13 13 13 13 15 15 14 14 14 13 12 12 13 14 12 11 11 11 10 8 7 6 6 5 5 6 8 8 9 10 12 13 13 13 12 12 11 8 6 7 8 7 6 6 6 6 5 5 5 6 6 6 7 7 7 6 5 2 2 3 3 4 6 8 8 8 9 11 13 12 11 10 10 9 8 10 12
11 11 11 12 12 13 12 12 13 14 14 13 14 15 14 15 15 15 15 15 16 16 14 12 13 13 12 11 10 9 9 8 7 8 9 9 9 9 10 12 13 13 13 12 10 6 4 4 5 5 5 6 6 6 5 5 6 6 6 6 6 7 7 6 3 2 2 2 2 5 8 9 9 9 9 9 10 9 8 8 9 9 10 12 12
11 10 10 10 10 11 12 13 12 13 14 14 14 13 13 13 12 12 13 14 15 16 15 15 15 15 15 14 13 11 10 10 10 10 9 9 10 10 9 9 10 9 8 8 9 9 6 5 5 5 5 5 5 5 5 5 5 5 5 6 6 6 6 4 3 2 2 3 5 7 9 9 9 9 8 8 9 9 9 9 9 10 12 13 12
10 10 10 10 9 9 11 13 13 13 13 13 13 13 13 14 13 11 10 11 11 11 12 14 15 15 15 15 14 12 10 9 10 10 10 9 10 9 9 9 8 7 6 5 5 6 6 7 7 5 4 3 2 3 4 4 4 4 4 4 4 4 3 3 3 2 4 6 7 9 9 9 8 7 6 8 11 13 14 13 12 12 14 14 14
9 8 9 11 12 12 13 13 14 14 13 12 11 11 11 12 13 13 13 12 12 11 11 12 12 13 13 13 11 9 8 8 8 8 8 8 8 7 6 6 6 5 4 3 2 3 5 7 7 5 4 3 3 4 3 2 1 1 1 1 2 4 4 2 3 5 7 7 8 9 9 8 8 8 8 9 12 14 15 14 14 15 15 15 16
7 7 8 9 10 11 13 12 12 13 13 11 11 11 10 10 11 13 14 14 14 15 15 14 14 13 13 11 9 8 7 7 7 6 6 6 5 3 2 2 2 2 2 2 2 4 5 6 5 4 3 1 2 4 3 3 3 2 1 1 2 2 2 6 8 9 9 9 9 9 8 9 9 10 10 11 13 14 14 14 14 15 15 16 16
4 7 8 9 9 11 13 12 11 12 12 11 11 11 11 10 9 10 11 12 12 12 13 13 13 13 13 10 7 6 6 6 5 5 4 3 3 2 2 3 4 4 4 5 4 4 4 3 2 4 5 4 3 3 3 4 3 3 6 7 9 10 12 14 13 11 10 10 11 10 10 10 11 12 11 12 14 14 13 13 14 14 15 16 16
9 11 11 13 15 16 17 14 12 11 12 11 10 10 9 9 9 9 9 9 9 8 8 9 9 8 9 8 6 4 5 4 3 3 3 2 2 2 3 4 4 4 5 5 5 4 5 5 6 7 7 5 4 7 8 6 9 13 15 15 15 15 14 15 15 14 13 13 13 12 12 12 12 12 12 13 13 12 12 13 13 14 16 17 17
12 12 11 13 13 14 15 15 12 11 9 8 8 9 9 10 10 10 9 9 8 7 7 7 6 5 4 5 4 3 3 3 2 1 1 1 2 3 3 3 3 4 5 4 4 6 9 10 9 9 13 15 16 18 20 19 19 18 17 17 16 15 14 15 15 14 14 14 14 13 12 12 12 12 12 12 12 13 13 13 14 16 17 17 18
8 8 10 11 11 11 11 11 11 10 8 6 6 6 8 10 10 10 10 10 10 10 9 8 8 7 6 5 4 3 2 2 1 0 1 2 2 3 3 3 3 4 4 3 6 10 13 13 13 14 18 20 20 20 21 21 20 18 18 18 18 16 15 14 12 12 13 13 13 13 12 12 12 12 12 13 13 14 15 16 16 17 17 18 18
9 8 9 10 10 11 10 9 8 8 8 7 5 4 7 8 8 8 9 9 9 10 11 11 10 10 9 7 6 4 3 1 0 1 1 1 2 2 2 2 2 4 5 5 8 13 15 17 18 19 20 21 21 20 20 21 21 20 18 17 17 16 15 12 10 11 12 12 12 12 12 12 12 12 13 14 14 15 17 18 18 18 19 20 20
10 9 8 8 8 10 10 9 8 6 6 6 6 4 5 6 5 7 9 9 9 9 9 9 10 10 11 10 10 10 8 5 2 2 1 1 2 2 0 1 3 6 7 8 11 14 16 18 19 20 20 20 21 20 19 19 19 19 18 16 14 14 13 12 10 11 11 11 12 12 12 12 14 14 15 15 16 16 18 19 20 20 20 21 21
7 8 7 7 7 8 8 8 7 6 6 5 6 7 5 3 3 6 8 8 9 9 8 8 10 11 11 11 12 13 13 12 7 3 1 2 3 3 3 5 8 9 9 11 13 14 16 18 19 18 18 18 19 19 18 17 17 17 16 16 15 14 13 12 11 11 11 12 13 13 13 13 14 15 16 16 17 18 19 20 20 21 20 20 20
7 8 7 5 6 7 6 5 4 4 5 6 6 6 5 4 4 4 4 7 9 9 9 9 11 12 10 10 11 12 14 14 10 6 5 5 7 8 8 9 12 14 15 15 15 15 15 16 16 15 15 15 15 16 16 15 15 14 13 13 14 14 13 12 12 11 12 13 13 13 14 14 15 15 15 16 17 18 19 19 19 19 19 19 18
7 8 8 6 6 6 5 4 4 4 6 7 7 6 5 4 4 6 7 8 8 8 10 11 12 11 9 8 8 11 13 12 8 8 10 10 11 13 14 12 13 15 16 16 16 17 17 16 15 14 14 13 13 12 12 13 13 13 11 12 13 13 11 11 11 11 12 13 13 13 14 15 15 15 15 16 17 17 17 17 17 17 17 17 17
9 11 10 8 7 7 6 5 6 7 7 7 6 5 4 3 3 4 5 5 4 7 12 13 11 10 8 6 5 7 10 9 8 9 10 10 10 13 16 16 15 15 15 15 15 16 16 16 15 14 13 13 11 10 9 10 10 10 10 11 12 12 11 10 10 10 11 12 13 13 14 14 15 15 15 15 16 16 16 16 16 16 16 17 17
12 14 13 10 8 8 7 5 4 4 4 4 4 4 4 4 5 6 5 4 6 11 16 15 11 9 6 6 6 7 8 7 7 8 8 7 7 9 11 14 15 14 12 12 11 11 12 13 13 13 12 13 12 10 8 8 8 9 10 12 13 13 12 12 11 10 11 12 12 13 13 14 14 14 14 14 14 14 15 15 15 16 16 17 17
13 13 13 11 10 9 7 6 5 5 4 4 5 5 4 4 4 6 6 7 9 14 16 14 11 9 8 8 9 9 7 4 5 6 4 3 4 5 6 8 11 11 10 9 9 9 9 9 10 11 11 12 13 12 9 8 7 7 9 12 13 13 12 12 12 11 10 11 11 12 12 12 12 12 12 13 13 13 13 14 14 15 15 16 16
14 13 12 11 11 11 8 6 6 6 5 5 5 5 6 6 6 6 7 9 10 12 12 11 9 9 9 10 11 9 6 4 5 6 4 3 3 4 6 7 8 9 9 8 7 8 8 7 7 9 10 9 10 11 10 9 8 7 8 10 11 11 11 11 11 10 10 10 10 11 11 11 11 11 11 12 12 12 12 12 13 13 14 14 15
15 15 13 12 12 11 9 8 8 7 6 5 5 5 6 7 7 7 7 8 8 8 8 8 7 7 8 9 9 9 8 9 9 9 9 7 7 7 8 9 8 9 10 9 7 7 7 7 6 7 8 7 7 8 9 10 9 8 7 7 9 11 12 11 11 10 10 9 9 9 10 11 11 10 10 11 12 12 12 12 12 13 13 13 14
18 17 13 12 13 12 9 9 10 9 7 7 6 6 6 6 5 5 5 4 3 3 4 6 7 8 9 9 7 6 7 9 12 12 11 9 9 9 10 10 9 9 10 10 8 6 7 7 6 6 6 7 6 7 8 8 7 7 6 5 7 9 10 10 10 9 9 9 9 9 11 13 12 10 10 11 12 12 12 12 12 12 12 13 13
18 19 15 12 13 11 8 9 11 11 9 8 7 7 6 5 4 4 4 3 3 4 5 7 8 8 9 9 8 7 6 7 8 9 9 8 8 8 8 7 8 7 7 8 7 5 3 4 4 4 5 5 4 5 6 6 4 5 4 3 3 4 6 7 8 8 7 8 9 10 12 13 11 8 9 10 11 10 10 10 10 10 10 11 11
15 16 14 13 11 9 7 9 10 11 9 8 6 6 5 4 4 4 3 3 4 5 8 9 9 8 7 6 6 7 7 7 6 6 6 5 5 5 4 4 3 3 4 5 6 4 1 2 2 3 4 5 5 4 5 5 4 3 2 1 1 3 4 6 6 6 7 9 10 10 11 11 9 7 8 9 9 8 8 8 8 8 9 10 10
15 13 9 7 4 5 7 9 11 11 10 7 6 6 5 3 4 5 4 4 3 3 3 5 6 6 6 4 3 4 5 5 4 4 3 3 3 4 4 3 3 3 4 5 5 4 2 1 2 3 4 5 6 5 4 4 3 3 2 1 2 4 5 6 7 9 10 11 11 10 9 8 6 5 6 7 7 6 7 8 7 8 9 11 13
14 14 11 8 11 15 16 14 13 13 12 9 7 7 6 5 7 8 7 5 4 4 4 3 2 3 5 5 4 4 3 3 2 2 2 3 4 4 3 3 4 3 3 3 5 5 4 3 3 4 3 3 4 4 3 2 3 3 2 1 3 5 7 8 9 11 12 11 10 8 7 5 4 4 4 5 6 7 7 8 9 10 11 13 14
10 14 14 14 14 17 17 14 12 14 13 10 8 7 5 4 7 9 9 9 7 5 4 4 4 3 3 3 3 4 4 3 3 3 3 4 4 3 2 2 3 3 3 1 4 6 5 4 3 4 3 2 2 2 2 2 3 2 1 3 5 7 9 11 12 12 12 10 9 7 6 5 4 2 3 5 6 7 8 9 11 12 13 14 15
11 14 15 13 9 8 10 10 11 12 11 9 6 5 5 5 5 5 3 4 4 4 4 3 2 3 4 3 3 3 2 1 1 2 3 4 5 4 1 3 3 4 5 3 1 4 6 5 2 2 2 1 1 2 3 3 3 3 4 6 8 10 12 13 13 12 10 9 8 7 7 6 4 2 3 5 6 7 9 11 12 14 15 16 16
10 8 7 8 8 7 6 7 10 12 11 9 7 5 6 6 5 3 2 2 1 2 3 2 1 2 3 4 5 5 3 1 1 1 1 2 5 5 2 3 4 4 4 4 3 1 4 4 1 2 2 1 1 3 5 5 5 7 9 10 11 12 12 12 11 10 9 9 10 9 7 6 4 3 4 5 6 8 10 12 13 15 16 16 16
11 6 5 4 4 5 5 6 9 10 9 8 7 7 8 8 6 4 3 3 3 2 2 1 0 2 3 4 4 5 4 2 1 2 3 2 3 6 4 1 2 2 2 2 1 1 3 3 1 2 2 1 0 2 4 5 6 9 11 10 10 10 11 11 12 12 12 12 11 9 7 6 5 4 4 5 6 9 11 13 14 15 16 15 15
Wind_Direction
186 187 189 191 194 196 196 198 199 200 202 202 201 202 200 197 198 204 207 207 203 201 206 207 205 209 214 213 213 222 227 224 224 228 230 231 225 223 232 236 238 241 244 245 236 245 273 257 238 260 264 259 264 256 270 316 290 245 262 290 276 286 303 307 305 309 321 333 337 341 347 345 346 356 352 346 350 347 344 349 345 335 337 349 356
188 187 188 192 195 194 195 198 199 200 202 203 204 203 202 203 206 211 210 208 208 205 205 209 210 212 214 214 215 220 223 222 223 226 230 232 230 228 233 237 243 244 245 247 239 236 249 247 246 259 259 260 265 252 271 312 304 245 286 321 308 316 314 300 322 314 316 331 337 337 339 340 339 343 343 339 342 345 344 344 345 343 344 351 351
186 188 190 196 195 190 192 196 197 200 204 205 205 204 205 208 209 214 212 208 209 210 211 214 214 214 213 213 217 220 223 226 226 225 228 232 233 232 237 243 248 248 246 246 241 238 242 241 244 250 256 263 261 249 264 290 305 285 340 345 325 329 195 227 289 302 306 325 334 335 338 339 334 332 326 319 325 336 334 331 338 349 353 350 343
185 192 194 196 196 188 189 193 194 198 202 205 207 206 208 210 208 211 214 213 211 212 215 215 216 218 216 217 220 220 224 229 228 226 226 231 237 240 241 246 253 254 254 253 247 245 246 243 244 246 251 262 265 253 252 272 290 258 218 329 279 242 220 232 270 296 296 310 324 332 335 328 324 327 321 312 315 324 323 321 320 323 327 328 328
180 192 198 198 196 190 189 192 192 196 202 207 209 207 207 210 211 211 212 212 210 212 214 211 213 219 218 218 220 219 221 225 225 228 230 234 242 247 242 243 253 257 256 255 253 253 252 250 250 250 249 252 257 259 258 265 271 249 228 268 261 251 261 262 284 300 290 290 300 316 327 328 327 331 331 325 318 315 316 318 319 320 323 323 324
172 192 215 206 195 193 196 196 194 195 201 207 209 207 207 210 215 213 209 208 208 211 216 213 214 219 216 215 219 219 218 222 226 229 231 238 246 246 238 237 246 254 253 250 253 255 252 247 245 245 244 243 241 249 255 253 250 247 249 259 248 245 266 283 297 302 297 294 296 311 329 338 333 330 333 331 320 318 327 335 339 343 345 343 340
161 192 222 215 195 192 194 193 193 195 199 207 211 211 212 212 215 214 209 208 209 211 215 215 214 217 216 213 216 221 222 224 229 230 230 238 246 248 243 238 244 252 252 249 251 253 251 247 244 241 236 233 235 241 244 243 246 250 256 260 248 257 290 311 316 317 323 325 324 325 331 333 328 329 340 346 339 344 359 1 353 347 346 345 345
167 191 207 202 197 212 195 182 185 188 191 198 202 206 213 210 208 212 207 207 211 212 213 215 216 220 223 219 217 221 225 224 223 227 231 234 240 248 247 244 248 250 250 253 253 249 250 248 246 246 242 235 236 239 239 242 249 242 227 236 238 243 277 294 305 317 328 331 330 328 325 327 334 342 354 7 8 3 1 357 350 345 342 340 341
170 180 182 175 183 224 238 199 189 188 189 192 190 198 211 204 195 201 194 192 200 205 206 212 218 221 222 221 219 224 229 228 224 225 231 235 238 242 244 247 252 250 249 255 253 248 258 263 253 254 256 244 235 234 234 232 228 216 204 221 247 249 259 272 288 305 318 323 327 332 331 334 345 354 360 6 0 351 345 343 343 344 341 335 332
145 138 145 160 172 200 229 216 203 201 199 202 202 202 212 208 195 202 197 184 184 189 195 202 213 225 227 221 215 218 224 228 226 223 227 235 239 242 243 246 251 250 250 253 249 252 282 296 266 258 260 244 231 235 240 232 220 223 234 254 267 266 265 271 280 285 293 305 317 329 332 330 335 345 350 346 340 338 338 339 339 338 337 333 328
144 130 138 152 160 182 210 210 208 212 209 212 219 217 218 215 200 201 207 203 198 196 190 183 177 190 226 222 212 209 214 221 225 226 226 232 237 241 244 245 247 249 250 253 247 252 290 290 265 268 267 240 234 243 245 236 230 241 258 267 272 273 270 273 280 282 286 295 302 307 308 310 315 323 329 328 328 331 332 334 335 333 334 331 323
168 155 158 170 174 180 194 199 206 213 215 221 228 230 230 231 225 215 212 215 214 207 192 181 175 164 191 225 220 217 223 226 229 232 232 235 241 244 244 246 252 251 245 252 267 250 226 219 221 234 238 223 232 240 235 233 241 249 253 258 268 274 273 274 279 281 281 284 288 288 291 295 297 303 312 315 318 321 321 325 328 326 325 323 314
155 156 164 182 195 201 211 220 221 220 224 229 233 235 237 244 251 245 228 216 214 210 201 192 193 190 188 203 212 219 228 231 233 239 241 242 246 248 245 246 266 282 257 244 259 238 170 147 184 206 210 212 223 226 218 223 241 245 240 247 260 265 274 284 285 282 280 278 279 285 290 291 291 297 303 303 307 311 314 318 322 319 318 319 316
127 134 140 161 183 201 216 225 231 233 236 238 237 236 236 240 248 245 221 196 187 197 198 182 167 174 174 172 179 198 222 231 236 244 247 246 248 252 247 236 250 308 289 252 258 254 228 225 218 202 199 211 221 216 208 213 223 230 232 239 252 272 297 305 297 288 283 277 278 287 297 298 295 295 294 293 298 304 308 312 316 317 319 321 322
104 115 122 139 162 178 196 212 224 231 238 243 239 234 232 233 237 230 207 187 184 185 183 170 155 156 165 170 172 177 198 224 237 244 246 249 251 252 240 214 204 243 290 267 258 257 248 258 254 224 222 230 231 219 207 204 203 198 195 202 220 270 309 313 308 303 299 292 288 289 293 293 290 287 288 291 295 300 305 308 312 319 326 329 331
101 102 106 121 146 167 185 198 205 215 228 236 233 231 230 228 227 222 204 189 204 208 194 181 173 161 164 175 180 182 191 205 223 239 246 247 245 239 224 210 210 222 242 233 212 215 229 239 235 225 224 226 226 223 212 200 193 187 189 204 217 233 295 305 309 321 304 286 282 281 282 287 288 288 291 292 296 302 305 307 314 328 336 337 338
103 95 93 93 99 126 170 178 176 189 205 209 203 211 220 217 211 210 203 194 209 225 217 200 192 178 174 184 194 198 201 206 214 230 244 239 224 205 200 207 212 212 206 197 198 203 214 224 224 219 217 218 222 224 220 217 214 209 213 217 215 224 209 184 179 196 232 264 286 292 294 297 296 295 295 295 299 302 301 307 323 338 344 344 339
102 93 89 87 86 91 112 140 153 163 177 192 194 197 208 213 213 215 217 217 224 232 234 227 219 211 203 205 211 213 215 216 216 222 232 230 216 189 172 177 184 188 187 186 193 197 204 218 220 211 205 203 207 213 220 237 243 243 244 234 221 231 220 203 214 247 272 290 297 297 300 305 307 309 309 308 310 306 300 308 336 349 350 348 336
108 99 91 86 80 80 87 94 97 97 97 107 139 167 194 212 218 220 217 214 218 226 230 227 224 221 216 210 210 214 219 222 222 221 227 228 218 204 193 185 182 183 184 186 192 195 196 200 196 191 190 189 194 203 214 234 249 260 257 246 231 232 240 253 270 284 294 299 301 312 330 335 333 335 338 351 16 27 26 24 17 359 350 345 337
101 96 92 90 83 80 84 87 87 87 88 87 92 103 121 187 218 224 219 210 208 212 212 209 205 201 199 196 195 201 210 216 221 227 233 236 226 214 209 209 206 200 194 193 194 190 188 188 188 189 189 185 188 197 207 224 249 262 254 246 237 240 254 266 279 298 301 299 334 3 353 346 360 27 54 67 65 62 56 41 28 15 4 353 344
97 96 95 93 88 87 90 91 88 87 87 86 86 89 90 97 147 193 207 208 206 194 179 175 173 170 171 176 179 183 193 199 204 215 225 230 223 213 208 207 208 206 200 193 188 186 185 186 190 195 198 196 196 200 210 228 250 257 257 251 246 252 260 261 272 301 300 319 30 6 348 6 35 55 65 58 48 44 41 35 28 16 9 8 4
93 97 100 96 92 92 96 99 95 91 91 91 88 87 84 80 91 110 125 137 141 139 141 140 130 124 130 140 150 156 154 160 168 167 173 188 196 199 201 197 193 195 193 181 171 173 183 189 191 197 206 215 219 219 226 241 250 251 248 248 257 266 265 261 271 289 325 66 43 5 1 30 37 26 22 24 24 23 22 21 17 5 4 13 12
98 99 101 100 99 97 94 96 97 97 99 98 92 91 92 88 87 92 98 102 105 106 110 113 108 104 104 103 101 101 106 123 142 137 135 146 161 176 187 186 180 180 180 169 155 152 171 189 192 196 209 226 241 248 245 240 238 238 242 256 269 269 266 268 269 247 106 73 41 15 29 46 44 23 12 12 13 14 18 24 22 14 5 358 354
104 102 102 103 106 103 97 96 98 96 96 97 94 92 94 93 89 88 91 95 99 101 102 106 107 105 101 97 92 91 95 101 106 112 118 122 129 145 162 169 169 170 171 172 171 174 188 204 206 210 225 240 245 246 243 237 235 241 252 265 268 265 269 271 240 166 103 69 61 56 58 61 53 42 33 25 19 15 17 19 13 5 358 352 352
92 90 93 100 113 116 107 100 99 94 89 89 91 89 90 94 95 94 95 96 100 104 105 104 102 101 100 98 93 88 92 97 98 104 111 109 104 108 120 135 146 154 163 177 192 203 222 254 260 245 243 251 252 252 253 251 251 256 261 261 261 265 268 253 206 168 112 103 93 75 67 58 45 40 41 38 35 32 25 16 5 358 358 357 2
87 81 80 86 103 119 117 108 102 96 88 84 83 80 81 91 100 101 97 94 100 111 114 110 106 104 103 101 95 88 87 88 90 93 99 104 104 102 106 115 122 126 132 151 184 202 222 246 254 246 234 236 251 259 260 262 267 272 262 245 239 243 240 223 211 173 133 119 97 77 68 59 48 46 49 48 44 37 29 21 12 7 6 3 3
89 86 86 85 87 97 107 108 103 100 96 91 86 77 73 83 92 90 83 82 88 97 106 113 114 112 110 108 107 102 93 86 85 86 86 90 96 97 97 99 103 111 122 144 200 239 250 252 257 262 254 229 212 209 216 236 241 196 154 171 244 275 281 253 187 146 128 112 97 90 82 71 62 55 49 44 35 26 21 20 18 15 12 8 6
96 96 98 93 85 92 102 102 98 98 98 94 87 78 71 76 82 78 73 75 83 90 97 105 113 121 126 128 127 120 103 88 86 85 79 76 75 70 62 50 34 14 344 313 285 291 296 287 280 286 287 242 192 190 188 174 159 147 90 317 279 270 143 128 123 118 109 100 97 93 80 64 55 45 35 28 22 17 16 17 16 14 11 11 14
107 106 98 84 78 92 103 100 93 92 93 91 87 80 70 65 70 73 69 69 76 89 98 101 105 116 128 134 135 122 105 95 88 75 63 52 36 8 330 324 327 326 325 322 317 325 337 342 327 318 313 301 287 284 274 244 201 108 82 91 102 106 108 104 93 85 84 83 80 74 65 56 46 36 28 21 18 16 15 14 13 13 13 14 17
105 109 99 87 83 89 95 97 97 96 91 89 90 89 81 71 68 70 71 68 69 77 87 90 90 100 111 114 115 108 97 92 81 56 32 3 345 341 326 318 319 319 325 330 336 355 16 20 8 4 6 10 34 50 57 83 99 91 86 88 87 84 82 76 71 73 76 73 68 65 59 51 42 35 31 27 23 22 23 22 20 20 19 20 20
99 101 97 92 90 90 91 93 98 101 100 99 97 97 99 95 83 75 73 72 72 72 74 73 65 54 64 80 87 86 71 61 51 40 358 304 304 310 316 316 316 323 336 358 24 21 13 8 13 43 70 76 76 77 79 84 88 86 81 77 72 70 67 62 61 67 69 65 63 60 51 43 39 36 31 27 27 28 27 25 24 23 22 24 24
96 96 99 99 99 99 97 95 97 101 109 118 118 117 119 112 102 94 89 83 82 83 81 75 65 52 46 45 37 21 23 41 50 15 314 306 291 286 295 306 318 339 354 24 35 32 33 39 49 67 78 77 75 78 78 77 80 82 80 76 71 67 63 57 54 57 59 54 49 44 39 36 34 33 32 33 35 35 32 29 27 26 25 24 21
113 110 111 110 108 107 106 107 108 106 106 106 104 139 152 136 119 117 115 107 103 100 92 85 76 66 58 54 48 38 28 21 260 244 270 285 282 284 291 302 343 18 26 32 40 49 61 69 69 70 72 72 73 77 75 72 74 78 78 75 69 62 58 55 51 50 50 47 43 39 38 39 40 40 41 41 41 41 38 33 29 25 22 17 11
128 126 118 111 111 111 111 115 115 114 118 106 81 90 143 154 157 154 143 133 129 123 109 95 85 73 65 62 61 53 43 33 357 272 245 274 308 309 300 349 359 10 25 49 66 72 74 73 70 70 72 71 71 72 71 68 69 73 74 72 64 54 49 47 47 46 44 47 50 50 48 50 51 50 47 44 42 39 34 28 22 19 16 11 7
144 141 122 110 117 121 120 123 125 130 142 127 89 76 84 104 155 171 172 168 157 145 130 111 94 80 70 63 57 50 42 37 32 12 328 1 20 38 46 31 28 39 61 78 83 80 75 73 71 68 68 69 67 65 64 62 60 62 66 65 56 47 42 45 53 57 53 51 54 54 52 51 51 48 46 43 38 32 25 19 15 14 12 9 6
144 142 130 125 136 138 136 140 146 158 162 144 114 88 64 51 66 96 133 155 156 153 148 130 107 91 78 65 56 47 39 34 36 43 48 47 46 45 42 43 55 72 83 83 80 77 73 71 70 66 63 63 62 59 57 55 50 49 55 56 49 43 43 47 55 60 59 58 57 53 49 48 45 40 37 34 28 23 18 14 12 11 10 7 5
160 150 141 140 144 145 145 135 119 129 144 138 120 98 79 69 61 61 79 108 132 155 159 139 114 100 93 74 55 44 41 42 52 60 61 62 60 55 57 66 74 79 81 77 75 75 73 68 66 66 62 58 54 52 50 49 46 45 47 44 37 36 41 47 53 58 59 59 56 49 45 43 37 30 27 25 20 17 15 13 12 10 8 6 4
183 172 168 162 151 146 143 128 107 105 118 124 114 95 90 91 69 59 74 82 99 145 150 138 118 108 103 82 51 31 35 52 73 67 60 69 73 68 71 76 74 71 73 73 72 73 73 70 67 66 60 52 47 45 48 53 52 50 53 50 45 46 54 59 61 61 59 57 53 46 39 34 29 24 24 22 19 17 15 12 9 6 3 1 359
180 174 175 175 165 156 152 149 138 120 117 130 126 111 111 108 81 71 74 67 86 121 135 136 128 116 93 64 44 19 10 34 67 67 59 65 68 67 75 79 74 68 66 66 65 66 69 70 68 61 53 52 53 56 62 68 63 57 58 58 54 56 63 68 68 65 58 53 49 42 35 30 25 21 20 19 17 16 12 7 4 2 357 354 353
189 181 182 184 179 170 161 156 154 147 135 135 131 124 129 128 95 73 69 72 95 120 131 131 120 101 68 42 32 19 4 26 81 84 80 64 47 46 57 67 70 68 62 57 58 59 61 65 61 48 41 49 57 58 58 62 62 61 59 55 51 53 61 65 65 61 54 47 40 34 30 26 20 16 18 19 16 12 7 3 2 360 356 355 355
197 189 188 191 190 181 170 162 160 156 148 142 133 123 124 123 113 101 86 75 87 111 121 115 100 81 59 43 37 34 39 68 83 94 109 96 55 49 48 49 60 68 64 59 60 62 66 70 56 38 31 40 51 52 51 52 54 52 50 50 55 60 63 61 58 56 52 44 34 27 25 22 17 17 20 17 11 7 5 3 360 357 356 356 355
199 191 187 189 187 178 172 178 180 169 157 156 150 133 127 125 121 116 99 78 78 99 115 116 105 81 62 58 59 62 67 68 69 82 95 94 91 91 84 79 79 72 59 55 61 70 76 74 54 37 37 46 53 54 53 54 51 46 45 55 68 73 68 59 52 48 43 36 31 28 25 20 17 20 21 14 6 4 2 0 358 358 357 356 353
196 191 185 181 178 175 181 192 189 173 157 157 154 144 142 144 140 130 116 97 88 101 138 151 136 100 78 74 74 69 63 63 67 73 77 84 100 108 104 102 101 82 59 51 57 73 79 65 46 42 55 64 67 63 58 55 50 44 47 64 77 79 76 66 55 45 32 20 15 14 10 7 9 16 18 9 2 1 360 357 357 357 356 355 355
198 191 186 179 177 179 179 174 168 160 154 154 153 150 152 156 159 160 161 153 121 96 109 135 136 113 96 94 91 80 63 53 58 63 63 75 99 108 108 113 113 99 70 52 46 52 58 35 26 44 57 55 61 64 52 39 27 28 40 64 77 73 69 61 51 42 25 7 357 351 351 352 358 11 14 4 356 356 358 355 352 351 351 351 349
193 182 171 164 168 174 169 162 162 164 166 167 169 174 178 177 174 177 174 154 123 101 100 109 111 106 105 111 105 90 72 55 55 61 56 63 94 103 101 106 104 81 60 44 34 26 351 325 351 26 34 34 47 52 28 13 24 47 56 64 58 53 50 43 30 16 1 352 344 341 343 348 354 6 5 356 351 351 351 347 345 344 342 338 333
183 175 157 143 162 200 204 201 199 193 186 181 177 175 171 150 138 140 132 120 111 86 80 98 101 91 83 80 91 96 77 55 55 58 37 39 95 105 94 89 81 60 51 45 38 30 2 334 353 353 357 23 47 42 2 356 39 76 88 70 51 43 34 19 360 348 346 345 343 343 346 350 354 355 349 343 343 344 340 337 337 334 330 329 328
201 202 205 224 237 229 216 209 203 192 182 171 157 150 136 109 108 110 95 76 59 23 8 19 51 66 63 58 64 88 89 62 48 40 32 59 100 111 105 109 115 110 87 54 33 18 358 353 18 24 16 34 53 41 358 4 64 87 99 60 26 11 3 355 344 339 342 346 346 347 349 346 343 342 336 335 339 339 333 329 328 326 327 327 327
218 216 218 226 226 212 197 186 178 173 169 161 153 154 148 117 114 112 95 77 67 47 27 24 24 22 28 41 71 116 128 111 80 67 58 53 53 57 84 125 149 166 170 110 44 37 33 37 60 71 70 73 67 39 27 61 93 94 17 353 350 348 350 347 341 338 342 345 346 349 348 342 341 343 336 334 337 333 327 325 325 326 327 327 326
219 223 220 214 197 173 167 169 170 168 163 154 154 181 206 206 182 162 134 97 76 57 48 48 24 1 5 35 74 102 133 142 54 41 40 32 26 29 103 153 157 171 186 195 123 50 47 48 78 104 88 66 304 335 360 22 40 12 353 349 346 343 344 343 340 339 341 344 346 348 344 341 349 8 356 344 336 325 319 320 323 325 326 326 327
189 187 182 170 152 127 117 133 148 154 155 151 150 160 175 178 177 180 187 172 129 47 27 37 54 29 31 55 61 47 37 107 131 52 7 28 29 30 64 142 135 141 174 206 230 346 17 15 39 134 111 98 262 301 326 343 355 352 347 343 341 340 340 339 337 337 340 342 344 345 343 343 353 1 349 339 328 316 314 318 322 324 325 324 324
168 136 78 74 110 118 111 119 129 134 140 148 145 126 117 120 124 125 138 165 190 222 251 246 171 46 47 65 61 35 26 63 173 235 244 246 8 14 21 82 122 137 171 195 224 289 308 310 270 174 161 145 106 334 329 330 334 337 338 339 340 340 338 334 333 336 341 344 344 344 342 345 348 344 332 323 312 307 311 316 318 319 320 319 317